Location: Unspecified
(37.3333°N, 0.0000°E)
Time: 20:28:22
(UTC+00:00)

Envisat - Visible Passes

Search period start: 24 May 2019 00:00
Search period end: 03 June 2019 00:00
Orbit: 764 x 766 km, 98.2° (Epoch: 24 May)

Date Brightness Start Highest point End Pass type
(mag) Time Alt. Az. Time Alt. Az. Time Alt. Az.
24 May 5.6 19:40:43 10° SW 19:44:12 18° W 19:47:41 10° NW visible
29 May 5.9 19:56:24 10° WSW 19:58:37 13° W 20:00:52 10° WNW visible
01 Jun 5.7 19:44:05 10° SW 19:47:17 17° W 19:50:30 10° NW visible
